JQ1YUX-13 Tokyo Ota-ku JP current weather conditions

sailwx.info

Wind from 037 at 2 knots gusting 10

Air temperature 20.0° C
Dewpoint 19.5° C

Last reported at 2015-May-29 11:28 UTC.
Time now 2015-May-29 12:24 UTC

Location: N 35°35' E 139°40'.
View on Google Maps.

See reports from other nearby stations

  
Tides and Currents Weather Stations Pressure Air Temp Water Temp Dewpoint Dewpoint Depression Visibility Wind Speed Wind Dir Waves Ship Positions
date/time (UTC)wind fromknots sea level pressurealtimeterstation pressurevisibilityair tempwater tempwave heightnotes
2015-May-29 11:28 037 2 gusting 10 20.0
2015-May-29 11:21 348 4 gusting 8 20.0
2015-May-29 10:58 348 6 gusting 10 20.6
2015-May-29 10:51 047 6 gusting 9 20.6
2015-May-29 10:28 355 3 gusting 7 20.6
2015-May-29 10:21 355 2 gusting 5 20.6
2015-May-29 09:58 009 21.1
2015-May-29 09:51 013 5 gusting 6 20.6
2015-May-29 09:28 340 5 gusting 6 20.6
2015-May-29 09:21 019 1 gusting 4 20.6
2015-May-29 08:58 338 5 gusting 6 20.6
2015-May-29 08:51 032 4 gusting 8 20.6
2015-May-29 08:28 032 2 gusting 6 20.6
2015-May-29 08:21 028 4 gusting 7 20.6
2015-May-29 07:58 038 5 gusting 9 20.6
2015-May-29 07:51 032 2 gusting 8 20.6
2015-May-29 07:28 026 20.6
2015-May-29 07:21 023 2 gusting 6 21.1
2015-May-29 06:58 026 5 gusting 7 21.1
2015-May-29 06:51 009 5 gusting 9 21.1
2015-May-29 06:28 347 3 gusting 5 21.1
2015-May-29 06:21 005 3 gusting 3 21.1
2015-May-29 05:58 330 3 gusting 6 20.6
2015-May-29 05:51 342 1 gusting 11 20.6
2015-May-29 05:28 322 20.6
2015-May-29 05:21 20.6
2015-May-29 04:58 013 0 gusting 3 20.6
2015-May-29 04:51 027 0 gusting 6 20.6
2015-May-29 04:28 329 1 gusting 6 20.6
2015-May-29 04:21 20.6
2015-May-29 03:58 341 5 gusting 7 21.7
2015-May-29 03:51 048 5 gusting 12 22.2
2015-May-29 03:28 009 5 gusting 11 22.8
2015-May-29 03:21 009 4 gusting 9 22.2
2015-May-29 02:58 048 7 gusting 9 22.2
2015-May-29 02:51 013 4 gusting 13 22.8
2015-May-29 02:28 025 6 gusting 9 22.8
2015-May-29 02:21 015 6 gusting 9 22.8
2015-May-29 01:58 346 6 gusting 9 22.8
2015-May-29 01:51 022 6 gusting 9 22.8
2015-May-29 01:28 355 5 gusting 9 22.8
2015-May-29 01:21 026 5 gusting 9 22.8
2015-May-29 00:58 315 2 gusting 6 22.8
2015-May-29 00:51 017 22.8
2015-May-29 00:28 009 6 gusting 7 22.2
2015-May-29 00:21 038 1 gusting 6 22.2
2015-May-28 23:58 055 1 gusting 4 22.2
2015-May-28 23:51 058 0 22.2
2015-May-28 23:28 022 3 gusting 7 22.2
2015-May-28 23:21 022 1 gusting 4 22.2
2015-May-28 22:58 021 0 gusting 4 22.2
2015-May-28 22:51 048 4 gusting 6 21.7
2015-May-28 22:28 021 3 gusting 5 21.7
2015-May-28 22:21 031 5 gusting 6 21.7
2015-May-28 21:58 040 1 gusting 6 21.7
2015-May-28 21:51 042 21.7
2015-May-28 21:28 018 3 gusting 6 21.7
2015-May-28 21:21 030 0 gusting 6 21.7
2015-May-28 20:58 052 3 gusting 6 21.7
2015-May-28 20:51 040 21.7
2015-May-28 20:28 21.7
2015-May-28 20:21 044 0 gusting 1 21.7
2015-May-28 19:58 009 21.7
2015-May-28 19:51 009 21.7
2015-May-28 19:28 174 21.1
2015-May-28 19:21 174 21.1
2015-May-28 18:58 173 21.1
2015-May-28 18:51 173 21.1
2015-May-28 18:28 174 21.1
2015-May-28 18:21 174 21.1
2015-May-28 17:58 173 21.1
2015-May-28 17:51 173 21.1
2015-May-28 17:28 174 21.1
2015-May-28 17:21 174 21.7
2015-May-28 16:58 173 21.7
2015-May-28 16:51 175 21.7
2015-May-28 16:28 174 21.7
2015-May-28 16:21 173 21.7
2015-May-28 15:58 174 21.7
2015-May-28 15:51 174 21.7
2015-May-28 15:28 173 21.7
2015-May-28 15:21 173 21.7
2015-May-28 14:58 173 21.7
2015-May-28 14:51 174 21.7
2015-May-28 14:28 174 21.7
2015-May-28 14:21 173 21.7
2015-May-28 13:58 173 21.7
2015-May-28 13:51 173 21.7
2015-May-28 13:28 174 21.7
2015-May-28 13:21 174 21.7
2015-May-28 12:58 173 22.2
2015-May-28 12:51 173 22.2
2015-May-28 12:28 175 22.2
2015-May-28 12:21 175 22.2
2015-May-28 11:58 173 22.2
2015-May-28 11:51 170 22.2
2015-May-28 11:28 190 22.2
2015-May-28 11:21 171 0 gusting 3 22.2
2015-May-28 10:58 177 22.8
2015-May-28 10:51 184 22.8
2015-May-28 10:28 165 0 gusting 4 22.8
2015-May-28 10:21 168 23.3
2015-May-28 09:58 167 1 gusting 6 23.3
2015-May-28 09:51 180 1 gusting 4 23.3
2015-May-28 09:28 231 3 gusting 5 23.9
2015-May-28 09:21 203 23.9
2015-May-28 08:58 221 23.9
2015-May-28 08:51 222 23.9
2015-May-28 08:28 211 24.4
2015-May-28 08:21 170 0 gusting 6 25.0
2015-May-28 07:58 190 1 gusting 6 25.6
2015-May-28 07:51 205 0 gusting 1 25.6
2015-May-28 07:28 192 4 gusting 10 26.1
2015-May-28 06:58 205 4 gusting 6 26.1
2015-May-28 06:28 167 6 gusting 7 26.1
2015-May-28 05:58 161 5 gusting 6 27.2
2015-May-28 05:28 215 1 gusting 5 26.7
2015-May-28 04:58 167 26.7
2015-May-28 04:28 180 4 gusting 6 26.7
2015-May-28 03:58 218 26.1
2015-May-28 03:28 190 25.6
2015-May-28 02:58 192 25.0
2015-May-28 02:28 029 25.0
2015-May-28 01:58 213 0 24.4
2015-May-28 01:28 233 23.9
2015-May-28 00:58 281 22.8
2015-May-28 00:28 134 22.2
2015-May-27 23:58 355 21.7
2015-May-27 23:28 326 21.7
2015-May-27 22:58 284 21.7
2015-May-27 22:28 347 20.6
2015-May-27 21:58 313 20.0
2015-May-27 21:28 317 19.4
2015-May-27 20:58 316 19.4
2015-May-27 20:28 035 2 gusting 6 18.9
2015-May-27 19:58 321 18.9
2015-May-27 19:28 036 18.9
2015-May-27 18:58 355 1 gusting 6 18.9
2015-May-27 18:28 326 1 gusting 3 18.9
2015-May-27 17:58 026 3 gusting 7 19.4
2015-May-27 17:28 038 19.4
2015-May-27 16:58 034 19.4
2015-May-27 16:28 029 4 gusting 6 19.4
2015-May-27 15:58 043 20.0
2015-May-27 15:28 036 1 gusting 5 20.0
2015-May-27 14:58 040 2 gusting 6 20.6
2015-May-27 14:28 036 21.1
2015-May-27 13:58 028 0 gusting 5 21.7
2015-May-27 13:28 029 22.2
2015-May-27 12:58 024 22.8
2015-May-27 12:28 198 22.8